Lapse_Rate
7.5 6.9 6.9 6.4 6.4 5.6 5.2 5.4 4.8 5.0 4.3 4.5 5.2 5.3 5.3 5.7 5.9 5.7 5.7 5.6 5.4 5.4
7.1 7.1 6.8 6.6 5.6 6.0 5.6 5.1 4.5 4.7 4.4 4.8 5.0 4.7 5.0 5.5 6.2 6.2 6.2 6.2 6.3 6.3
7.1 7.0 6.6 6.5 6.5 6.3 5.5 4.9 4.5 3.9 5.0 5.2 4.9 5.0 4.7 4.7 5.2 5.6 6.1 6.3 6.0 6.2
7.1 6.8 5.9 6.2 6.0 5.9 4.9 4.3 3.9 4.3 4.9 5.0 4.6 4.6 4.7 4.9 4.7 5.0 5.4 5.4 5.6 5.9
6.9 6.4 6.3 6.2 5.8 5.3 4.8 4.6 4.4 5.3 5.3 5.2 5.2 5.3 5.5 5.3 5.0 5.2 5.6 5.3 4.9 5.2
6.3 6.3 5.7 5.8 5.6 5.0 4.9 5.5 5.2 5.0 5.0 5.4 5.4 5.1 5.0 5.1 5.4 5.6 5.3 5.1 5.1 5.0
6.2 6.2 5.9 5.7 5.3 4.9 4.9 5.0 4.6 4.8 5.2 5.5 5.2 5.2 5.0 5.1 5.1 5.2 5.2 5.0 4.5 4.4
6.5 6.1 6.4 5.8 5.4 5.2 4.9 4.8 4.7 5.0 5.5 5.4 5.4 5.1 5.3 5.1 4.8 4.7 5.0 5.0 4.7 4.5
6.5 6.5 6.1 6.2 5.6 5.4 5.2 5.0 5.3 5.4 5.5 5.3 5.3 5.2 5.1 5.0 4.4 4.6 4.6 4.8 4.8 4.7
6.6 6.3 6.0 5.7 5.9 5.5 5.5 5.6 5.5 5.6 5.5 5.7 5.5 5.3 4.6 4.4 4.7 4.8 4.8 5.0 5.0 4.9
6.6 6.5 6.2 6.1 5.6 5.7 5.5 5.5 5.6 5.7 5.7 5.6 5.4 4.9 4.2 4.3 4.8 4.9 5.0 4.9 5.0 5.0
6.4 6.4 6.1 6.0 5.8 5.7 5.7 5.7 5.5 5.7 5.6 5.4 4.9 4.5 4.5 4.8 4.9 4.9 4.9 4.9 4.9 5.0
6.2 6.1 6.0 6.1 5.8 5.8 5.7 5.5 5.5 5.4 5.4 4.9 4.7 4.7 4.9 4.8 4.7 4.9 5.0 4.9 4.9 5.0
5.9 5.9 5.9 5.7 5.7 5.5 5.5 5.4 5.3 5.1 4.7 4.9 4.6 4.5 4.7 4.8 4.9 4.9 4.8 4.9 5.0 4.8
Wind_Speed
14 10 11 14 12 11 9 12 12 10 8 8 12 11 11 7 6 8 7 8 7 6
12 13 13 13 11 9 12 11 13 11 10 8 12 11 10 8 9 9 7 7 6 5
11 12 12 11 13 13 11 12 14 12 11 11 9 11 12 10 10 11 6 5 7 6
10 11 12 10 9 8 9 12 13 12 12 11 9 9 11 10 10 11 9 6 7 8
11 11 10 10 11 12 12 13 13 14 14 13 11 10 10 10 9 10 8 7 6 7
10 10 9 12 14 13 13 14 12 13 14 12 11 12 11 11 10 10 8 5 7 5
14 12 13 14 13 12 13 15 12 12 13 13 11 12 11 10 10 10 9 8 7 6
14 16 15 15 14 13 13 13 13 14 13 11 10 8 10 10 9 10 9 8 8 7
12 14 17 16 15 14 14 13 13 13 12 9 7 17 18 13 10 9 8 7 7 6
14 13 15 16 17 15 14 14 13 12 10 10 11 18 19 18 8 8 7 6 5 5
14 14 14 16 17 17 12 14 11 11 12 11 9 18 18 18 8 7 6 6 6 5
16 16 16 14 16 15 14 13 11 10 11 11 10 17 17 12 7 7 6 5 6 4
12 17 17 14 14 11 13 13 10 11 10 15 9 15 16 11 5 6 4 4 5 7
12 17 15 13 12 13 13 12 11 11 9 9 7 8 13 11 4 4 4 3 3 3
Wind_Direction
169 174 167 170 165 160 156 146 145 128 125 123 118 119 113 104 102 101 104 102 95 97
164 169 168 163 162 155 145 148 137 129 131 122 118 119 106 102 100 91 86 88 89 89
163 166 165 161 156 147 151 141 128 130 126 117 112 110 108 107 105 105 103 102 107 92
156 151 149 140 135 140 122 119 115 118 107 106 107 104 108 107 108 104 102 93 99 94
143 140 142 139 117 114 116 110 115 112 109 111 107 98 93 94 89 99 97 90 98 92
136 131 124 114 114 119 119 115 107 113 112 108 103 102 100 109 111 100 98 106 94 98
151 139 127 116 109 112 115 114 112 109 107 107 112 107 114 117 117 114 109 99 87 77
154 127 121 114 113 110 107 108 112 110 103 111 117 128 135 120 116 113 109 105 95 86
109 124 122 117 114 114 108 107 109 106 112 124 130 132 126 124 119 111 104 102 95 102
115 116 120 124 121 114 115 114 111 116 127 123 120 127 122 116 105 106 109 112 125 118
112 112 116 124 121 117 127 123 124 125 114 112 118 121 119 112 102 99 101 101 95 105
123 120 116 115 118 125 123 118 121 118 119 116 112 119 121 113 108 103 93 95 88 77
119 119 111 120 119 123 118 116 118 110 107 117 120 128 125 120 115 118 128 130 94 93
104 106 108 108 113 111 107 108 108 108 110 116 125 123 113 118 105 139 138 136 139 118